Météo par heure à Caen

Ce jour, 1 Octobre, Jeudi

Heure Température Précipitation Vent Pression Humidité
00:00 +14°C° 1.6 mm 6 m/s 750 mmHg 93%
01:00 +14°C° 1.4 mm 5 m/s 750 mmHg 93%
02:00 +14°C° 1.4 mm 5 m/s 749 mmHg 92%
03:00 +13°C° 1.4 mm 4 m/s 749 mmHg 91%
04:00 +12°C° 0.1 mm 5 m/s 749 mmHg 91%
05:00 +12°C° 0.1 mm 5 m/s 749 mmHg 90%
06:00 +10°C° 0.1 mm 5 m/s 749 mmHg 90%
07:00 +11°C° 0.1 mm 6 m/s 749 mmHg 85%
08:00 +12°C° 0.1 mm 7 m/s 750 mmHg 80%
09:00 +12°C° 0.1 mm 7 m/s 750 mmHg 76%
10:00 +14°C° 0.2 mm 7 m/s 750 mmHg 70%
11:00 +14°C° 0.2 mm 7 m/s 750 mmHg 64%
12:00 +15°C° 0.2 mm 7 m/s 750 mmHg 59%
13:00 +15°C° 0.1 mm 6 m/s 750 mmHg 59%
14:00 +15°C° 0.1 mm 6 m/s 749 mmHg 60%
15:00 +14°C° 0.1 mm 5 m/s 749 mmHg 60%
16:00 +14°C° 0.1 mm 5 m/s 748 mmHg 65%
17:00 +13°C° 0.1 mm 4 m/s 748 mmHg 69%
18:00 +12°C° 0.1 mm 4 m/s 747 mmHg 74%
19:00 +11°C° 0 mm 4 m/s 747 mmHg 77%
20:00 +10°C° 0 mm 5 m/s 746 mmHg 80%
21:00 +10°C° 0 mm 6 m/s 745 mmHg 83%
22:00 +10°C° 0 mm 6 m/s 744 mmHg 83%
23:00 +10°C° 0 mm 6 m/s 743 mmHg 83%

Demain, 2 Octobre, Vendredi

Heure Température Précipitation Vent Pression Humidité
00:00 +9°C° 0 mm 5 m/s 741 mmHg 83%
01:00 +10°C° 0.2 mm 6 m/s 740 mmHg 83%
02:00 +10°C° 0.2 mm 7 m/s 738 mmHg 83%
03:00 +10°C° 0.2 mm 8 m/s 737 mmHg 83%
04:00 +10°C° 1.3 mm 9 m/s 736 mmHg 86%
05:00 +9°C° 1.3 mm 10 m/s 735 mmHg 89%
06:00 +9°C° 1.3 mm 11 m/s 734 mmHg 92%
07:00 +9°C° 0.7 mm 10 m/s 734 mmHg 88%
08:00 +11°C° 0.7 mm 9 m/s 734 mmHg 84%
09:00 +12°C° 0.7 mm 9 m/s 734 mmHg 79%
10:00 +13°C° 0 mm 8 m/s 735 mmHg 72%
11:00 +15°C° 0 mm 7 m/s 736 mmHg 64%
12:00 +16°C° 0 mm 6 m/s 736 mmHg 56%
13:00 +16°C° 0 mm 6 m/s 737 mmHg 57%
14:00 +16°C° 0 mm 6 m/s 737 mmHg 58%
15:00 +16°C° 0 mm 5 m/s 737 mmHg 58%
16:00 +15°C° 0.2 mm 5 m/s 738 mmHg 65%
17:00 +14°C° 0.2 mm 5 m/s 739 mmHg 72%
18:00 +13°C° 0.2 mm 4 m/s 739 mmHg 79%
19:00 +12°C° 1 mm 4 m/s 739 mmHg 84%
20:00 +12°C° 1 mm 3 m/s 739 mmHg 89%
21:00 +12°C° 1 mm 3 m/s 740 mmHg 94%
22:00 +12°C° 2 mm 4 m/s 739 mmHg 95%
23:00 +13°C° 2 mm 6 m/s 738 mmHg 95%

Après-demain, 3 Octobre, Samedi

Heure Température Précipitation Vent Pression Humidité
00:00 +12°C° 2 mm 7 m/s 737 mmHg 95%
01:00 +12°C° 3.7 mm 8 m/s 737 mmHg 95%
02:00 +13°C° 3.7 mm 9 m/s 737 mmHg 94%
03:00 +13°C° 3.7 mm 10 m/s 736 mmHg 94%
04:00 +12°C° 1.7 mm 8 m/s 736 mmHg 94%
05:00 +11°C° 1.7 mm 6 m/s 736 mmHg 93%
06:00 +12°C° 1.7 mm 4 m/s 737 mmHg 93%
07:00 +11°C° 0.5 mm 4 m/s 737 mmHg 93%
08:00 +11°C° 0.5 mm 3 m/s 738 mmHg 92%
09:00 +12°C° 0.5 mm 2 m/s 738 mmHg 92%
10:00 +12°C° 0.9 mm 2 m/s 739 mmHg 92%
11:00 +11°C° 0.9 mm 3 m/s 739 mmHg 91%
12:00 +11°C° 0.9 mm 3 m/s 739 mmHg 91%
13:00 +11°C° 0.4 mm 3 m/s 738 mmHg 91%
14:00 +11°C° 0.4 mm 4 m/s 738 mmHg 92%
15:00 +11°C° 0.4 mm 4 m/s 738 mmHg 93%
16:00 +10°C° 1 mm 5 m/s 737 mmHg 94%
17:00 +10°C° 1 mm 6 m/s 737 mmHg 94%
18:00 +10°C° 1 mm 6 m/s 737 mmHg 95%
19:00 +10°C° 2.1 mm 8 m/s 737 mmHg 94%
20:00 +9°C° 2.1 mm 10 m/s 737 mmHg 93%
21:00 +9°C° 2.1 mm 11 m/s 737 mmHg 92%
22:00 +9°C° 0.8 mm 11 m/s 737 mmHg 90%
23:00 +9°C° 0.8 mm 10 m/s 737 mmHg 89%

4 Octobre, Dimanche

Heure Température Précipitation Vent Pression Humidité
00:00 +8°C° 0.8 mm 9 m/s 737 mmHg 87%
01:00 +9°C° 0.1 mm 8 m/s 738 mmHg 87%
02:00 +7°C° 0.1 mm 8 m/s 738 mmHg 87%
03:00 +7°C° 0.1 mm 8 m/s 738 mmHg 87%
04:00 +7°C° 0.1 mm 8 m/s 738 mmHg 88%
05:00 +7°C° 0.1 mm 8 m/s 739 mmHg 89%
06:00 +7°C° 0.1 mm 8 m/s 739 mmHg 90%
07:00 +9°C° 0.1 mm 8 m/s 739 mmHg 87%
08:00 +9°C° 0.1 mm 8 m/s 739 mmHg 84%
09:00 +10°C° 0.1 mm 9 m/s 740 mmHg 80%
10:00 +11°C° 0.3 mm 9 m/s 740 mmHg 79%
11:00 +11°C° 0.3 mm 9 m/s 740 mmHg 77%
12:00 +12°C° 0.3 mm 9 m/s 740 mmHg 76%
13:00 +12°C° 0.1 mm 9 m/s 740 mmHg 75%
14:00 +12°C° 0.1 mm 9 m/s 740 mmHg 74%
15:00 +12°C° 0.1 mm 9 m/s 740 mmHg 74%
16:00 +11°C° 0.4 mm 8 m/s 740 mmHg 78%
17:00 +10°C° 0.4 mm 8 m/s 740 mmHg 83%
18:00 +10°C° 0.4 mm 8 m/s 740 mmHg 88%
19:00 +10°C° 0.9 mm 8 m/s 741 mmHg 89%
20:00 +10°C° 0.9 mm 8 m/s 741 mmHg 91%
21:00 +10°C° 0.9 mm 9 m/s 741 mmHg 92%
22:00 +10°C° 0.6 mm 9 m/s 741 mmHg 92%
23:00 +10°C° 0.6 mm 8 m/s 742 mmHg 92%

5 Octobre, Lundi

Heure Température Précipitation Vent Pression Humidité
00:00 +11°C° 0.6 mm 8 m/s 742 mmHg 92%
01:00 +11°C° 0.8 mm 8 m/s 742 mmHg 92%
02:00 +11°C° 0.8 mm 8 m/s 742 mmHg 93%
03:00 +11°C° 0.8 mm 8 m/s 742 mmHg 93%
04:00 +11°C° 1.2 mm 9 m/s 742 mmHg 93%
05:00 +11°C° 1.2 mm 9 m/s 743 mmHg 92%
06:00 +11°C° 1.2 mm 9 m/s 743 mmHg 92%
07:00 +11°C° 1.6 mm 9 m/s 743 mmHg 92%
08:00 +11°C° 1.6 mm 9 m/s 743 mmHg 92%
09:00 +12°C° 1.6 mm 9 m/s 744 mmHg 92%
10:00 +12°C° 0.7 mm 9 m/s 744 mmHg 90%
11:00 +13°C° 0.7 mm 9 m/s 745 mmHg 89%
12:00 +13°C° 0.7 mm 8 m/s 745 mmHg 87%
13:00 +13°C° 0.6 mm 9 m/s 746 mmHg 88%
14:00 +13°C° 0.6 mm 9 m/s 746 mmHg 89%
15:00 +12°C° 0.6 mm 9 m/s 747 mmHg 89%
16:00 +12°C° 0.3 mm 9 m/s 747 mmHg 89%
17:00 +12°C° 0.3 mm 9 m/s 748 mmHg 89%
18:00 +12°C° 0.3 mm 9 m/s 748 mmHg 88%
19:00 +12°C° 0.2 mm 9 m/s 749 mmHg 88%
20:00 +12°C° 0.2 mm 9 m/s 749 mmHg 88%
21:00 +12°C° 0.2 mm 9 m/s 750 mmHg 87%
22:00 +12°C° 0.2 mm 9 m/s 750 mmHg 87%
23:00 +11°C° 0.2 mm 9 m/s 750 mmHg 87%

6 Octobre, Mardi

Heure Température Précipitation Vent Pression Humidité
00:00 +11°C° 0.2 mm 9 m/s 751 mmHg 88%
01:00 +11°C° 0.2 mm 8 m/s 751 mmHg 88%
02:00 +11°C° 0.2 mm 8 m/s 751 mmHg 89%
03:00 +10°C° 0.2 mm 7 m/s 751 mmHg 90%
04:00 +10°C° 0.1 mm 7 m/s 751 mmHg 90%
05:00 +9°C° 0.1 mm 6 m/s 751 mmHg 90%
06:00 +9°C° 0.1 mm 6 m/s 751 mmHg 90%
07:00 +10°C° 0 mm 6 m/s 751 mmHg 89%
08:00 +10°C° 0 mm 6 m/s 751 mmHg 87%
09:00 +11°C° 0 mm 6 m/s 751 mmHg 85%
10:00 +11°C° 0.1 mm 6 m/s 751 mmHg 83%
11:00 +13°C° 0.1 mm 6 m/s 751 mmHg 81%
12:00 +13°C° 0.1 mm 6 m/s 751 mmHg 79%
13:00 +13°C° 0.1 mm 5 m/s 751 mmHg 82%
14:00 +13°C° 0.1 mm 4 m/s 750 mmHg 84%
15:00 +13°C° 0.1 mm 3 m/s 750 mmHg 86%
16:00 +13°C° 0.1 mm 3 m/s 750 mmHg 89%
17:00 +13°C° 0.1 mm 3 m/s 750 mmHg 91%
18:00 +13°C° 0.1 mm 3 m/s 750 mmHg 94%
19:00 +13°C° 0.3 mm 2 m/s 750 mmHg 95%
20:00 +13°C° 0.3 mm 2 m/s 750 mmHg 96%
21:00 +13°C° 0.3 mm 2 m/s 750 mmHg 97%
22:00 +13°C° 0.5 mm 2 m/s 750 mmHg 97%
23:00 +13°C° 0.5 mm 2 m/s 750 mmHg 97%
Voir plus

We Need Your Consent

Meteoprog and our Service Providers may store and access personal data such as cookies, device identifiers or other similar technologies on your device and process such data to personalise content and ads, as well as provide social media features and to analyse the traffic.

  • Store and/or access information on your device

    Cookies, device identifiers or other information can be stored or accessed on your device for the purposes indicated above.

  • Personalised ads and content, ad and content measurement, audience insights, and products development

    Ads and content can be personalised based on a profile. More data can be added to better personalise ads and content. Ad and content performance can be measured. Insights about the audience who saw the ads and content can be derived. Such data can be used to develop or improve user’s experience, systems and software.

By clicking ‘I Agree’ you will allow the use of indicated cookies, device identifiers, web beacons or other similar technologies. Your settings can be changed in the browser on your device.

For certain purposes, legitimate interests may be relied on, rather than consent. You can read more about this in our Privacy and Cookie Policy.